AirNav   Air Wisconsin Up To $57,000 Bonus
 
 1152 users online  

2MU1 St Louis Children's Hospital Heliport
Saint Louis, Missouri, USA

GOING TO SAINT LOUIS?


FAA INFORMATION EFFECTIVE 07 OCTOBER 2021

Location

FAA Identifier: 2MU1
Lat/Long: 38-38-16.7000N 090-15-53.6500W
38-38.278333N 090-15.894167W
38.6379722,-90.2649028
(estimated)
Elevation: 610 ft. / 186 m (estimated)
Variation: 01E (1995)
Time zone: UTC -5 (UTC -6 during Standard Time)
Zip code: 63110

Heliport Operations

Heliport use: Private use, MEDICAL USE.
Activation date: 07/1997
Control tower: no
ARTCC: KANSAS CITY CENTER
FSS: SAINT LOUIS FLIGHT SERVICE STATION
Attendance: ON CALL
Wind indicator: yes
Segmented circle: no
Lights: FOR PERIMETER LGTS CALL 417-434-6000.

Heliport Communications

WX ASOS at CPS (7 nm SE): PHONE 618-332-0001
WX ASOS at STL (8 nm NW): PHONE 314-890-4790
WX ASOS at SUS (18 nm W): 134.8 (314-890-7255)
WX AWOS-3 at ALN (18 nm NE): 128.0 (618-259-7231)
WX ASOS at SET (19 nm NW): 118.075 (636-250-4590)

Nearby radio navigation aids

VOR radial/distance  VOR name  Freq  Var
STLr142/16.8ST LOUIS VORTAC117.4001E
TOYr245/17.3TROY VORTAC116.0004E
FTZr091/33.3FORISTELL VORTAC110.8005E

 
NDB name  Hdg/Dist  Freq  Var  ID
ACORE306/12.035000ECP -.-. .--.
EAVES101/13.422701WFZ ..-. --..
CIVIC MEMORIAL214/18.126301WCVM -.-. ...- --

Heliport Services

Runway Information

Helipad H1

Dimensions: 60 x 60 ft. / 18 x 18 m
Surface: concrete
Runway edge lights: PERI
Latitude: 38-38.278333N
Longitude: 090-15.894167W
Elevation: 610.0 ft.
Traffic pattern: leftleft

Heliport Ownership and Management from official FAA records

Ownership: Privately-owned
Owner: SAINT LOUIS CHILDREN'S HOSP.
1 CHILDREN'S PLACE
SAINT LOUIS, MO 63110-1077
Phone 314-454-6000
Manager: FACILITIES MANAGER
1 CHILDREN'S PLACE
SAINT LOUIS, MO 63110-1077
Phone 314-454-6000

Additional Remarks

ROOFTOP.
OWNER DESIRES HELIPORT NOT BE CHARTED.
FOR CD CTC ST LOUIS APCH AT 314-890-1018.

Instrument Procedures

There are no published instrument procedures at 2MU1.

Some nearby airports with instrument procedures:

KCPS - St Louis Downtown Airport (7 nm SE)
KSTL - St Louis Lambert International Airport (8 nm NW)
1H0 - Creve Coeur Airport (13 nm NW)
KSUS - Spirit of St Louis Airport (18 nm W)
KALN - St Louis Regional Airport (18 nm NE)
KSET - St Charles County Smartt Airport (19 nm NW)
 
Loc | Ops | Rwys | IFR | FBO | Links
Com | Nav | Svcs | Stats | Notes
Area around 2MU1 (St Louis Children's Hospital Heliport)
 
Road maps at: MapQuest Bing Google
 
Aerial photo
No photo
 
Sectional chart

 
Airport distance calculator
Flying to St Louis Children's Hospital Heliport? Find the distance to fly.

From to 2MU1

Sunrise and sunset
Times for 15-Oct-2021
 Local
(UTC-5)
 Zulu
(UTC)
Morning civil twilight06:4511:45
Sunrise07:1112:11
Sunset18:2223:22
Evening civil twilight18:4923:49

Current date and time
Zulu (UTC)  15-Oct-2021 22:34:32
Local (UTC-5)  15-Oct-2021 17:34:32
 
METAR
KCPS 
7nm SE 
152221Z 33016G30KT 10SM BKN028 OVC036 14/09 A2994 RMK AO2 PK WND 32030/2215 T01440094 $
KSTL 
8nm NW 
152151Z 33019G31KT 10SM -RA FEW010 SCT025 OVC034 15/09 A2993 RMK AO2 PK WND 34031/2149 RAB39 SLP130 P0000 T01500089 $
KSUS 
18nm W 
152154Z 33018G29KT 10SM OVC040 14/08 A2993 RMK AO2 PK WND 32029/2152 RAB25E46 SLP134 P0001 T01440083 $
KALN 
18nm NE 
152150Z 31009KT 10SM OVC031 15/11 A2992
KSET 
19nm NW 
152154Z AUTO 33014G23KT 10SM -RA OVC045 14/08 A2995 RMK AO2 RAB52 SLP141 P0000 T01390083 $
TAF
KCPS 
7nm SE 
152009Z 1520/1618 33012G18KT 6SM -SHRA BR OVC010 FM160000 33012G19KT P6SM VCSH OVC025 FM160100 33010KT P6SM OVC040 FM160400 30007KT P6SM FEW250 FM161600 31010G16KT P6SM SKC
KSTL 
8nm NW 
152059Z 1521/1624 33010G16KT P6SM VCSH OVC015 FM152300 33011G18KT 6SM -SHRA OVC020 FM160100 32008KT P6SM BKN045 FM160800 29008KT P6SM SKC FM161700 30012G20KT P6SM SKC
KSUS 
18nm W 
152152Z 1522/1618 33010G16KT P6SM VCSH OVC035 FM152300 33011G18KT 6SM -SHRA OVC020 FM160100 32008KT P6SM BKN045 FM160800 29008KT P6SM SKC FM161600 30010G16KT P6SM SKC
NOTAMs
Click for the latest NOTAMs
NOTAMs are issued by the DoD/FAA and will open in a separate window not controlled by AirNav.

 

 
 

Would you like to see your business listed on this page?

 If your business provides an interesting product or service to pilots, flight crews, aircraft, or users of the St Louis Children's Hospital Heliport, you should consider listing it here.  To start the listing process, click on the button below
 
Add a business
 

Other Pages about St Louis Children's Hospital Heliport

Update a link
 
Copyright © AirNav, LLC. All rights reserved. Privacy Policy  Contact